AirNav   Everest Fuels
 
 1153 users online  

29M Waite Field Airport
Durand, Michigan, USA

GOING TO DURAND?


FAA INFORMATION EFFECTIVE 25 FEBRUARY 2021

Location

FAA Identifier: 29M
Lat/Long: 42-53-26.5900N 083-55-55.9000W
42-53.443167N 083-55.931667W
42.8907194,-83.9321944
(estimated)
Elevation: 821 ft. / 250.2 m (surveyed)
From city: 3 miles SE of DURAND, MI
Time zone: UTC -5 (UTC -4 during Daylight Saving Time)
Zip code: 48429

Airport Operations

Airport use: Open to the public
Activation date: 07/2012
Control tower: no
ARTCC: CLEVELAND CENTER
FSS: LANSING FLIGHT SERVICE STATION
NOTAMs facility: LAN (NOTAM-D service available)
Attendance: UNATNDD
Wind indicator: yes
Segmented circle: no

Airport Communications

CTAF: 122.9
WX ASOS at FNT (9 nm NE): PHONE 810-342-7804
WX AWOS-3 at RNP (11 nm NW): 118.025 (989-729-2967)
WX AWOS-3 at OZW (16 nm S): 118.875 (517-546-4450)

Nearby radio navigation aids

VOR radial/distance  VOR name  Freq  Var
FNTr247/9.3FLINT VORTAC116.9006W
SVMr336/32.6SALEM VORTAC114.3003W
MBSr174/39.0SAGINAW VOR/DME112.9003W

Airport Services

Runway Information

Runway 3/21

Dimensions: 3400 x 60 ft. / 1036 x 18 m
Surface: turf, in poor condition
ROUGH WITH SLOPING TERRAIN.
Runway edge markings: RWY MKD WITH 3 FT YELLOW CONES.
RUNWAY 3  RUNWAY 21
Traffic pattern: leftright
Displaced threshold: 600 ft.no
Markings: NSTDNSTD
Obstructions: 23 ft. tree, 59 ft. from runway, 30 ft. left of centerline, 2:1 slope to clear
APCH RATIO AT DSPLCD THLD 25:1 OVER 45 FT TREE, 1140 FT DSTC, 45 FT R.
50 ft. tree, 761 ft. from runway, 125 ft. left of centerline, 15:1 slope to clear

Airport Ownership and Management from official FAA records

Ownership: Privately-owned
Owner: LEE A. WAITE
7294 S. SHERIDAN
DURAND, MI 48429
Phone (989) 288-0564
OWNER LIVES ON PREMISES.
Manager: LEE A. WAITE
7294 S. SHERIDAN
DURAND, MI 48429
Phone 989-288-3156

Airport Operational Statistics

Aircraft operations: 100/year *
50% transient general aviation
50% local general aviation
* for 12-month period ending 31 December 2018

Additional Remarks

DEER ON & INVOF ARPT.
FOR CD CTC KALAMAZOO APCH AT 269-459-3345, WHEN APCH CLSD CTC CLEVELAND ARTCC AT 440-774-0224, IF UNA CTC 440-774-0490.

Instrument Procedures

There are no published instrument procedures at 29M.

Some nearby airports with instrument procedures:

9G2 - Price's Airport (9 nm SE)
KFNT - Bishop International Airport (9 nm NE)
KRNP - Owosso Community Airport (11 nm NW)
KOZW - Livingston County Spencer J Hardy Airport (16 nm S)
KPTK - Oakland County International Airport (26 nm SE)
 
Loc | Ops | Rwys | IFR | FBO | Links
Com | Nav | Svcs | Stats | Notes
Aerial photo
No photo
 
Airport distance calculator
Flying to Waite Field Airport? Find the distance to fly.

From to 29M

Sunrise and sunset
Times for 26-Feb-2021
 Local
(UTC-5)
 Zulu
(UTC)
Morning civil twilight06:4911:49
Sunrise07:1812:18
Sunset18:2023:20
Evening civil twilight18:4823:48

Current date and time
Zulu (UTC)  26-Feb-2021 22:31:58
Local (UTC-5)  26-Feb-2021 17:31:58
 
METAR
KFNT 
9nm NE 
262153Z 15014KT 10SM CLR 05/M09 A3013 RMK AO2 SLP213 T00501089
KRNP 
11nm NW 
262215Z AUTO 14007KT 10SM CLR 04/M09 A3010 RMK AO2 T00431090
KOZW 
17nm S 
262215Z AUTO 14010KT 10SM CLR 04/M09 A3009 RMK AO2 T00401095
TAF
KFNT 
9nm NE 
261729Z 2618/2718 14009KT P6SM SCT250 FM270400 10008KT P6SM OVC080 FM270800 17008KT 3SM -FZRASN BR BKN016 OVC028 FM271200 26007KT 5SM BR OVC015 FM271500 22006KT P6SM BKN022
NOTAMs
Click for the latest NOTAMs
NOTAMs are issued by the DoD/FAA and will open in a separate window not controlled by AirNav.

 

 
 

Would you like to see your business listed on this page?

 If your business provides an interesting product or service to pilots, flight crews, aircraft, or users of the Waite Field Airport, you should consider listing it here.  To start the listing process, click on the button below
 
Add a business
 

Other Pages about Waite Field Airport

Page from the Michigan Airport Directory (PDF)
 
Update a link
 
Copyright © AirNav, LLC. All rights reserved. Privacy Policy  Contact